metlocid,date_time,avg_airt2m,stddev_airt2m,min_airt2m,max_airt2m,n_airt2m,avg_airt1_3m,stddev_airt1_3m,min_airt1_3m,max_airt1_3m,n_airt1_3m,n_comments
FLMM,1/8/11,-13.36096158,0.407018184,-14.08,-12.62,52,,,,,0,0
FLMM,1/9/11,-14.06385419,0.585294142,-15.3,-12.35,96,,,,,0,0
FLMM,1/10/11,-14.18562507,1.103963021,-15.8,-12.18,96,,,,,0,0
FLMM,1/11/11,-13.99770837,0.618358573,-14.97,-12.33,96,,,,,0,0
FLMM,1/12/11,-14.94843751,0.530599185,-16.36,-14.09,96,,,,,0,0
FLMM,1/13/11,-14.71572917,1.321160416,-16.84,-13,96,,,,,0,0
FLMM,1/14/11,-13.67135418,0.686873293,-14.56,-12.44,96,,,,,0,0
FLMM,1/15/11,-13.56656252,1.201255348,-15.66,-11.64,96,,,,,0,0
FLMM,1/16/11,-12.58760416,0.569734455,-13.56,-11.34,96,,,,,0,0
FLMM,1/17/11,-11.11708336,1.675872725,-13.69,-8.88,96,,,,,0,0
FLMM,1/18/11,-9.465520824,0.815173087,-10.65,-7.91,96,,,,,0,0
FLMM,1/19/11,-11.36427081,0.592556903,-12.83,-9.86,96,,,,,0,0
FLMM,1/20/11,-13.05354166,0.579675014,-13.9,-11.07,96,,,,,0,0
FLMM,1/21/11,-13.95510418,0.829174611,-15.52,-11.67,96,,,,,0,0
FLMM,1/22/11,-12.74947913,1.44956281,-15.98,-10.43,96,,,,,0,0
FLMM,1/23/11,-16.0244792,0.505456352,-17.22,-15.15,96,,,,,0,0
FLMM,1/24/11,-15.9913541,1.226191773,-20.3,-13.6,96,,,,,0,0
FLMM,1/25/11,-14.33604166,1.121321082,-16.56,-12.27,96,,,,,0,0
FLMM,1/26/11,-15.43947912,0.997113066,-16.66,-13.03,96,,,,,0,0
FLMM,1/27/11,-16.99989579,0.398363792,-18.37,-16.1,96,,,,,0,0
FLMM,1/28/11,-17.7957292,1.006783043,-19.12,-14.97,96,,,,,0,0
FLMM,1/29/11,-15.7945833,1.070627846,-18.59,-14.32,96,,,,,0,0
FLMM,1/30/11,-18.49041671,0.701307029,-19.43,-15.98,96,,,,,0,0
FLMM,1/31/11,-18.38104163,0.575427445,-19.5,-17.22,96,,,,,0,0
FLMM,2/1/11,-17.24135413,1.938174315,-20.19,-14.25,96,,,,,0,0
FLMM,2/2/11,-15.55656247,0.496272043,-16.97,-14.47,96,,,,,0,0
FLMM,2/3/11,-18.09135409,0.562963227,-19.19,-16.36,96,,,,,0,0
FLMM,2/4/11,-20.00229168,1.020042791,-21.81,-18.41,96,,,,,0,0
FLMM,2/5/11,-18.92020832,1.20697791,-20.78,-17.03,96,,,,,0,0
FLMM,2/6/11,-16.93302086,0.892293473,-18.41,-15.09,96,,,,,0,0
FLMM,2/7/11,-17.13760418,2.436922844,-21.69,-12.74,96,,,,,0,0
FLMM,2/8/11,-20.44843755,1.64012467,-23.34,-18.05,96,,,,,0,0
FLMM,2/9/11,-19.30260418,1.043537848,-21.19,-17.41,96,,,,,0,0
FLMM,2/10/11,-18.78427083,1.558614555,-21.01,-15.88,96,,,,,0,0
FLMM,2/11/11,-21.75895826,1.101875256,-23.92,-19.19,96,,,,,0,0
FLMM,2/12/11,-21.42229174,1.063561525,-22.91,-18.84,96,,,,,0,0
FLMM,2/13/11,-21.76229167,1.184832638,-23.84,-19.04,96,,,,,0,0
FLMM,2/14/11,-22.21802092,1.100498945,-24.13,-20.23,96,,,,,0,0
FLMM,2/15/11,-21.67229162,0.796623835,-22.79,-20.09,96,,,,,0,0
FLMM,2/16/11,-21.24593751,1.960914046,-24.52,-18.88,96,,,,,0,0
FLMM,2/17/11,-18.51999994,0.937094008,-20.05,-16.66,96,,,,,0,0
FLMM,2/18/11,-18.33937494,0.76153836,-19.34,-16.76,96,,,,,0,0
FLMM,2/19/11,-18.52229178,0.465286519,-19.45,-17.24,96,,,,,0,0
FLMM,2/20/11,-16.29562506,1.924470567,-19.4,-13.48,96,,,,,0,0
FLMM,2/21/11,-16.36802077,1.173280247,-18.41,-13.87,96,,,,,0,0
FLMM,2/22/11,-19.98208332,1.174007046,-22.01,-18.13,96,,,,,0,0
FLMM,2/23/11,-20.10531249,1.237891189,-22.14,-18.54,96,,,,,0,0
FLMM,2/24/11,-16.77760419,1.76491043,-19.32,-14.09,96,,,,,0,0
FLMM,2/25/11,-13.9486458,1.642792013,-16.91,-10.76,96,,,,,0,0
FLMM,2/26/11,-14.54739584,1.14342811,-16.94,-10.88,96,,,,,0,0
FLMM,2/27/11,-15.94458335,1.316398538,-18.73,-12.8,96,,,,,0,0
FLMM,2/28/11,-18.33010422,1.896595054,-22.06,-15.51,96,,,,,0,0
FLMM,3/1/11,-21.88479159,0.701464573,-24.22,-21,96,,,,,0,0
FLMM,3/2/11,-19.83958344,0.913695633,-21.3,-17.78,96,,,,,0,0
FLMM,3/3/11,-24.38739588,1.367259481,-26.36,-20.83,96,,,,,0,0
FLMM,3/4/11,-27.04656247,1.067415754,-28.9,-25.34,96,,,,,0,0
FLMM,3/5/11,-26.67197905,1.269995163,-28.93,-24.99,96,,,,,0,0
FLMM,3/6/11,-23.51583328,1.273564973,-25.83,-21.75,96,,,,,0,0
FLMM,3/7/11,-21.66374997,0.862002851,-23.15,-20.56,96,,,,,0,0
FLMM,3/8/11,-20.6110417,0.578850951,-22.29,-19.36,96,,,,,0,0
FLMM,3/9/11,-21.19072918,1.618032652,-24.25,-17.93,96,,,,,0,0
FLMM,3/10/11,-26.09687495,1.777553105,-30.39,-23.58,96,,,,,0,0
FLMM,3/11/11,-29.91802086,0.733221626,-31.3,-28.37,96,,,,,0,0
FLMM,3/12/11,-24.87031251,2.4989348,-29.54,-21.43,96,,,,,0,0
FLMM,3/13/11,-28.35437506,0.972418389,-31.29,-26.41,96,,,,,0,0
FLMM,3/14/11,-29.60374999,0.905236495,-31,-26.95,96,,,,,0,0
FLMM,3/15/11,-30.06864587,0.711978204,-31.85,-27.97,96,,,,,0,0
FLMM,3/16/11,-27.07604172,1.173520545,-29.82,-24.79,96,,,,,0,0
FLMM,3/17/11,-24.30656252,1.678770197,-29.37,-21.86,96,,,,,0,0
FLMM,3/18/11,-23.81187507,1.408269798,-28.37,-21.69,96,,,,,0,0
FLMM,3/19/11,-25.43802079,1.233387004,-30.09,-24.1,96,,,,,0,0
FLMM,3/20/11,-23.18833329,0.936403605,-25.5,-21.62,96,,,,,0,0
FLMM,3/21/11,-22.5004167,0.841277042,-23.63,-20.2,96,,,,,0,0
FLMM,3/22/11,-18.74479171,1.366457632,-22.25,-16.55,96,,,,,0,0
FLMM,3/23/11,-19.48864575,0.818821589,-21.76,-18.11,96,,,,,0,0
FLMM,3/24/11,-19.53322909,1.774173511,-22.56,-16.55,96,,,,,0,0
FLMM,3/25/11,-19.25864591,1.105450093,-23.55,-16.49,96,,,,,0,0
FLMM,3/26/11,-17.6807291,2.406184626,-24.18,-14.15,96,,,,,0,0
FLMM,3/27/11,-24.15979169,4.717332841,-31.91,-13.58,96,,,,,0,0
FLMM,3/28/11,-30.3811458,2.607880645,-34.19,-24.55,96,,,,,0,0
FLMM,3/29/11,-27.58020842,1.122829008,-32.12,-25.77,96,,,,,0,0
FLMM,3/30/11,-27.32333344,1.140783307,-29.73,-25.03,96,,,,,0,0
FLMM,3/31/11,-29.40677079,0.622363064,-30.46,-27.47,96,,,,,0,0
FLMM,4/1/11,-28.22270832,0.793434164,-31.1,-26.29,96,,,,,0,0
FLMM,4/2/11,-29.68437505,1.006576151,-31.7,-27.67,96,,,,,0,0
FLMM,4/3/11,-28.99552079,1.282662417,-31.96,-27.21,96,,,,,0,0
FLMM,4/4/11,-30.4402082,1.468446363,-33.17,-27.48,96,,,,,0,0
FLMM,4/5/11,-31.78437483,1.49288108,-34.43,-28.88,96,,,,,0,0
FLMM,4/6/11,-37.00812499,1.564343508,-39.88,-34.02,96,,,,,0,0
FLMM,4/7/11,-34.32572907,3.732161645,-39.95,-29.49,96,,,,,0,0
FLMM,4/8/11,-30.41999994,0.997938887,-32.16,-29.05,96,,,,,0,0
FLMM,4/9/11,-34.42916677,2.017406701,-37.07,-31.42,96,,,,,0,0
FLMM,4/10/11,-31.12770844,2.999256741,-35.8,-25.87,96,,,,,0,0
FLMM,4/11/11,-24.6726041,1.556393437,-27.55,-21.91,96,,,,,0,0
FLMM,4/12/11,-24.82385421,0.506482898,-25.84,-23.36,96,,,,,0,0
FLMM,4/13/11,-26.23791683,0.729150848,-27.41,-24.2,96,,,,,0,0
FLMM,4/14/11,-22.6735417,2.279836109,-25.62,-18.42,96,,,,,0,0
FLMM,4/15/11,-17.5798958,1.264551958,-19.07,-15.08,96,,,,,0,0
FLMM,4/16/11,-13.84041672,1.529826249,-17.38,-11.79,96,,,,,0,0
FLMM,4/17/11,-18.86843747,1.453465844,-26.78,-16.88,96,,,,,0,0
FLMM,4/18/11,-21.04895836,2.849145569,-30.21,-17.59,96,,,,,0,0
FLMM,4/19/11,-20.356875,1.446668182,-25.16,-18.16,96,,,,,0,0
FLMM,4/20/11,-19.47062512,1.191050748,-25.52,-16.84,96,,,,,0,0
FLMM,4/21/11,-19.93906252,2.969625223,-26.58,-16.21,96,,,,,0,0
FLMM,4/22/11,-28.93145841,4.715322916,-34.54,-19.55,96,,,,,0,0
FLMM,4/23/11,-33.25656255,2.427237099,-37.41,-29.15,96,,,,,0,0
FLMM,4/24/11,-30.52333339,1.43722662,-33.38,-27.18,96,,,,,0,0
FLMM,4/25/11,-32.01312512,3.069972067,-38.24,-26.46,96,,,,,0,0
FLMM,4/26/11,-28.1829166,2.780598786,-33.96,-23.79,96,,,,,0,0
FLMM,4/27/11,-22.84781255,1.492886503,-26.05,-20.55,96,,,,,0,0
FLMM,4/28/11,-27.68770832,0.963707194,-29.73,-25.97,96,,,,,0,0
FLMM,4/29/11,-25.16427084,0.609304654,-25.97,-23.59,96,,,,,0,0
FLMM,4/30/11,-23.47989589,0.71765774,-24.95,-22.4,96,,,,,0,0
FLMM,5/1/11,-24.81145821,0.50483348,-25.87,-23.39,96,,,,,0,0
FLMM,5/2/11,-26.17885415,1.174405915,-28.09,-23.75,96,,,,,0,0
FLMM,5/3/11,-28.46739576,1.407733727,-31.18,-26.14,96,,,,,0,0
FLMM,5/4/11,-26.47197932,1.823213801,-29.63,-24.27,96,,,,,0,0
FLMM,5/5/11,-32.66291684,1.604790887,-34.68,-28.96,96,,,,,0,0
FLMM,5/6/11,-33.89302085,1.475929876,-35.67,-30.11,96,,,,,0,0
FLMM,5/7/11,-31.5590624,1.238465981,-33.4,-28.19,96,,,,,0,0
FLMM,5/8/11,-34.5581251,1.031151895,-36.99,-32.41,96,,,,,0,0
FLMM,5/9/11,-30.5215625,1.684935959,-33.84,-27.23,96,,,,,0,0
FLMM,5/10/11,-26.41874993,3.51285487,-32.17,-19.54,96,,,,,0,0
FLMM,5/11/11,-25.25572912,2.196154926,-31.39,-21.13,96,,,,,0,0
FLMM,5/12/11,-21.23104167,1.366195184,-27.76,-19.51,96,,,,,0,0
FLMM,5/13/11,-24.26145832,1.210514392,-26.5,-21.17,96,,,,,0,0
FLMM,5/14/11,-27.66812499,1.617939071,-31.05,-24.79,96,,,,,0,0
FLMM,5/15/11,-29.37333333,0.519703667,-30.48,-28.05,96,,,,,0,0
FLMM,5/16/11,-28.34458321,0.986020162,-30.03,-26.24,96,,,,,0,0
FLMM,5/17/11,-27.46447913,0.743398892,-28.46,-25.49,96,,,,,0,0
FLMM,5/18/11,-27.38625,0.56669911,-28.48,-26.31,96,,,,,0,0
FLMM,5/19/11,-25.11302088,1.104925961,-26.81,-23.36,96,,,,,0,0
FLMM,5/20/11,-24.4043749,0.437860371,-25.38,-23.49,96,,,,,0,0
FLMM,5/21/11,-24.52406238,0.235830384,-24.95,-24.08,96,,,,,0,0
FLMM,5/22/11,-23.01614583,2.592127907,-27.82,-19.61,96,,,,,0,0
FLMM,5/23/11,-30.31177078,1.926458268,-33.63,-26.83,96,,,,,0,0
FLMM,5/24/11,-30.70906256,0.919022476,-32.89,-28.43,96,,,,,0,0
FLMM,5/25/11,-31.59822919,2.615706778,-36.38,-28.79,96,,,,,0,0
FLMM,5/26/11,-33.05947918,2.271605717,-36.48,-28.62,96,,,,,0,0
FLMM,5/27/11,-28.61750001,3.651104606,-35.49,-24.37,96,,,,,0,0
FLMM,5/28/11,-33.13781232,0.666063564,-34.55,-31.4,96,,,,,0,0
FLMM,5/29/11,-26.87156256,2.085557149,-31.61,-23.65,96,,,,,0,0
FLMM,5/30/11,-27.41416669,1.901749668,-29.66,-23.93,96,,,,,0,0
FLMM,5/31/11,-28.21614577,0.683954977,-29.27,-27.19,96,,,,,0,0
FLMM,6/1/11,-27.90520823,1.788144523,-30.96,-25.18,96,,,,,0,0
FLMM,6/2/11,-30.2755209,0.577666643,-30.94,-28.71,96,,,,,0,0
FLMM,6/3/11,-29.02468747,0.973173933,-30.44,-26.46,96,,,,,0,0
FLMM,6/4/11,-30.81166659,1.58019499,-33.76,-26.96,96,,,,,0,0
FLMM,6/5/11,-30.39916664,0.651391543,-32.32,-29.38,96,,,,,0,0
FLMM,6/6/11,-26.43583332,2.437964458,-29.46,-21.81,96,,,,,0,0
FLMM,6/7/11,-26.7791665,1.305443429,-28.96,-23.91,96,,,,,0,0
FLMM,6/8/11,-29.91624999,1.055950722,-31.56,-27.32,96,,,,,0,0
FLMM,6/9/11,-25.36041659,0.808003225,-27.14,-23.68,96,,,,,0,0
FLMM,6/10/11,-25.27635421,1.312726391,-27.2,-23.32,96,,,,,0,0
FLMM,6/11/11,-27.12989597,0.804544322,-29.16,-25.91,96,,,,,0,0
FLMM,6/12/11,-29.53781247,0.584746847,-30.3,-28.27,96,,,,,0,0
FLMM,6/13/11,-26.60864578,1.429575235,-29.05,-24.13,96,,,,,0,0
FLMM,6/14/11,-25.55010412,0.971965416,-27.03,-23.99,96,,,,,0,0
FLMM,6/15/11,-25.63937507,1.078429403,-27.16,-23.04,96,,,,,0,0
FLMM,6/16/11,-23.55625,0.876444062,-24.91,-21.83,96,,,,,0,0
FLMM,6/17/11,-19.99541668,0.696245449,-21.73,-18.37,96,,,,,0,0
FLMM,6/18/11,-20.96947912,1.101001862,-22.93,-18.46,96,,,,,0,0
FLMM,6/19/11,-28.00072912,2.491496789,-31.71,-23.12,96,,,,,0,0
FLMM,6/20/11,-28.11489588,1.062787818,-31.54,-25.46,96,,,,,0,0
FLMM,6/21/11,-29.23843761,1.644164356,-32.62,-26.34,96,,,,,0,0
FLMM,6/22/11,-29.53875007,1.455801008,-32.81,-26.82,96,,,,,0,0
FLMM,6/23/11,-34.35447905,2.591083397,-37.88,-28.64,96,,,,,0,0
FLMM,6/24/11,-30.45770832,2.031822356,-34.89,-27.26,96,,,,,0,0
FLMM,6/25/11,-32.0285417,0.670432696,-33.19,-30.68,96,,,,,0,0
FLMM,6/26/11,-33.83229156,0.672843773,-35.45,-32.46,96,,,,,0,0
FLMM,6/27/11,-31.48562509,1.467358478,-34.44,-29.06,96,,,,,0,0
FLMM,6/28/11,-28.84687505,0.688099344,-30.26,-27.64,96,,,,,0,0
FLMM,6/29/11,-26.87312498,1.067763393,-29.29,-25.24,96,,,,,0,0
FLMM,6/30/11,-28.15229166,0.731151118,-29.89,-26.66,96,,,,,0,0
FLMM,7/1/11,-27.81625001,1.11577891,-29.86,-25.9,96,,,,,0,0
FLMM,7/2/11,-29.23989594,1.22571182,-31.35,-26.63,96,,,,,0,0
FLMM,7/3/11,-31.3166667,2.63046404,-34.44,-26.28,96,,,,,0,0
FLMM,7/4/11,-27.96114586,1.329352001,-31.53,-26.02,96,,,,,0,0
FLMM,7/5/11,-26.97895833,1.675934652,-30.16,-22.06,96,,,,,0,0
FLMM,7/6/11,-29.00489583,2.836254732,-34.73,-24.86,96,,,,,0,0
FLMM,7/7/11,-33.33812491,1.505263941,-35.7,-30.61,96,,,,,0,0
FLMM,7/8/11,-27.65885419,1.822732985,-31.85,-25.25,96,,,,,0,0
FLMM,7/9/11,-27.72166667,0.737584488,-29.56,-25.8,96,,,,,0,0
FLMM,7/10/11,-28.53375,0.842090445,-29.81,-26.24,96,,,,,0,0
FLMM,7/11/11,-26.09020831,1.136994225,-27.88,-23.86,96,,,,,0,0
FLMM,7/12/11,-24.59645838,1.914451467,-29.79,-22.29,96,,,,,0,0
FLMM,7/13/11,-31.17135413,0.807704537,-33.01,-29.38,96,,,,,0,0
FLMM,7/14/11,-26.6629168,1.747884131,-30.07,-23.83,96,,,,,0,0
FLMM,7/15/11,-20.70260419,2.060619911,-24.22,-17.6,96,,,,,0,0
FLMM,7/16/11,-22.3927083,3.344947323,-27.61,-17.87,96,,,,,0,0
FLMM,7/17/11,-27.91854179,1.408363747,-30.6,-24.87,96,,,,,0,0
FLMM,7/18/11,-21.81833341,0.994897132,-24.77,-20.61,96,,,,,0,0
FLMM,7/19/11,-23.47531247,1.160138849,-25.09,-20.76,96,,,,,0,0
FLMM,7/20/11,-23.73927089,1.067550309,-25.33,-21.89,96,,,,,0,0
FLMM,7/21/11,-26.1301042,2.921433184,-30.3,-21.49,96,,,,,0,0
FLMM,7/22/11,-27.43177088,3.47103601,-33.46,-20.22,96,,,,,0,0
FLMM,7/23/11,-24.73718752,2.210073024,-29.62,-19.06,96,,,,,0,0
FLMM,7/24/11,-30.54020842,0.582508136,-31.66,-28.89,96,,,,,0,0
FLMM,7/25/11,-30.85906255,0.410165711,-31.83,-29.69,96,,,,,0,0
FLMM,7/26/11,-28.25718741,1.395349937,-30.55,-25.13,96,,,,,0,0
FLMM,7/27/11,-24.95520836,0.561988825,-26.33,-23.46,96,,,,,0,0
FLMM,7/28/11,-26.79770827,2.212393122,-30.62,-22.23,96,,,,,0,0
FLMM,7/29/11,-29.60166675,0.764502829,-31.07,-27.87,96,,,,,0,0
FLMM,7/30/11,-28.32458329,1.312960373,-31.15,-26.23,96,,,,,0,0
FLMM,7/31/11,-28.54531258,1.95356298,-31.31,-25.66,96,,,,,0,0
FLMM,8/1/11,-23.29114588,1.126638173,-26.1,-20.86,96,,,,,0,0
FLMM,8/2/11,-20.35416673,1.921510176,-22.96,-16.36,96,,,,,0,0
FLMM,8/3/11,-15.69895832,0.970121446,-21.25,-14.95,96,,,,,0,0
FLMM,8/4/11,-17.73031245,0.667036543,-19.17,-16.67,96,,,,,0,0
FLMM,8/5/11,-20.77677081,3.237763808,-29.19,-14.79,96,,,,,0,0
FLMM,8/6/11,-22.56833332,3.013807804,-29.98,-15.79,96,,,,,0,0
FLMM,8/7/11,-26.95895831,1.443945913,-28.96,-22.94,96,,,,,0,0
FLMM,8/8/11,-30.30802081,1.669841291,-32.83,-25.46,96,,,,,0,0
FLMM,8/9/11,-33.40281252,1.48435116,-36.07,-30.04,96,,,,,0,0
FLMM,8/10/11,-30.34052086,1.88494824,-32.36,-25.85,96,,,,,0,0
FLMM,8/11/11,-23.77406243,0.971949318,-26.07,-21.95,96,,,,,0,0
FLMM,8/12/11,-23.09281246,0.936826223,-25.46,-21.6,96,,,,,0,0
FLMM,8/13/11,-26.70718745,0.776181913,-28.74,-24.9,96,,,,,0,0
FLMM,8/14/11,-28.68677086,1.087511355,-31.05,-26.42,96,,,,,0,0
FLMM,8/15/11,-24.07499993,1.442684679,-27.9,-21.64,96,,,,,0,0
FLMM,8/16/11,-25.54812497,1.428383108,-27.93,-22.45,96,,,,,0,0
FLMM,8/17/11,-26.33281247,3.558988793,-35.2,-20.36,96,,,,,0,0
FLMM,8/18/11,-24.64906253,2.699091173,-35.22,-20.95,96,,,,,0,0
FLMM,8/19/11,-35.08083328,3.897312655,-39.82,-27.08,96,,,,,0,0
FLMM,8/20/11,-38.40010428,1.145036225,-40.46,-35.55,96,,,,,0,0
FLMM,8/21/11,-33.89625003,1.886137032,-37.13,-31.06,96,,,,,0,0
FLMM,8/22/11,-34.61270829,1.436986208,-36.51,-31.2,96,,,,,0,0
FLMM,8/23/11,-25.44479167,2.143712061,-30.93,-22.21,96,,,,,0,0
FLMM,8/24/11,-27.06770829,2.474178842,-29.71,-22.1,96,,,,,0,0
FLMM,8/25/11,-27.90697916,0.691401513,-28.89,-25.66,96,,,,,0,0
FLMM,8/26/11,-27.40750001,0.873377063,-29.36,-25.45,96,,,,,0,0
FLMM,8/27/11,-24.85156256,1.446415059,-27.08,-22.28,96,,,,,0,0
FLMM,8/28/11,-22.03437511,0.61836253,-23.05,-20.75,96,,,,,0,0
FLMM,8/29/11,-23.4313542,0.375493024,-24.27,-22.74,96,,,,,0,0
FLMM,8/30/11,-23.13395828,0.892004801,-24.81,-21.08,96,,,,,0,0
FLMM,8/31/11,-24.54697913,1.01615195,-26.32,-22.14,96,,,,,0,0
FLMM,9/1/11,-22.29093756,1.497644526,-24.57,-19.19,96,,,,,0,0
FLMM,9/2/11,-23.38927082,0.608172767,-24.39,-21.24,96,,,,,0,0
FLMM,9/3/11,-22.34739576,2.01002019,-25.35,-18.19,96,,,,,0,0
FLMM,9/4/11,-22.61052076,1.258055621,-25.31,-20.93,96,,,,,0,0
FLMM,9/5/11,-24.6789584,1.608346284,-27.31,-21.12,96,,,,,0,0
FLMM,9/6/11,-22.66510415,1.77369859,-26.44,-19.62,96,,,,,0,0
FLMM,9/7/11,-26.18281247,3.820774556,-33.29,-20.64,96,,,,,0,0
FLMM,9/8/11,-31.71552076,1.309097603,-33.69,-29.63,96,,,,,0,0
FLMM,9/9/11,-29.9883333,1.338979723,-32.34,-27.8,96,,,,,0,0
FLMM,9/10/11,-25.67333331,1.090696173,-27.66,-24.25,96,,,,,0,0
FLMM,9/11/11,-23.14020838,1.141526125,-24.63,-20.86,96,,,,,0,0
FLMM,9/12/11,-20.23020832,0.594123816,-21,-18.71,96,,,,,0,0
FLMM,9/13/11,-20.4733334,0.861112765,-22.67,-18.76,96,,,,,0,0
FLMM,9/14/11,-23.69833328,1.311341344,-26.12,-20.72,96,,,,,0,0
FLMM,9/15/11,-22.09666673,0.839382855,-24.36,-20.45,96,,,,,0,0
FLMM,9/16/11,-21.79729162,1.071542353,-24.64,-19.92,96,,,,,0,0
FLMM,9/17/11,-24.61229161,0.968277453,-29.62,-22.85,96,,,,,0,0
FLMM,9/18/11,-22.82437493,2.133372335,-26.03,-18.11,96,,,,,0,0
FLMM,9/19/11,-27.22302083,2.308433531,-32.98,-23.35,96,,,,,0,0
FLMM,9/20/11,-29.30458331,2.476251774,-35.76,-23.83,96,,,,,0,0
FLMM,9/21/11,-30.58833341,0.540503966,-31.91,-29.04,96,,,,,0,0
FLMM,9/22/11,-29.50635417,1.222406616,-33.09,-25.91,96,,,,,0,0
FLMM,9/23/11,-26.11458335,2.059716933,-34.73,-20.73,96,,,,,0,0
FLMM,9/24/11,-33.16281243,3.366840117,-38.87,-27.33,96,,,,,0,0
FLMM,9/25/11,-37.40874994,1.373554307,-40.02,-34.26,96,,,,,0,0
FLMM,9/26/11,-31.44802084,2.702727022,-37.4,-28.45,96,,,,,0,0
FLMM,9/27/11,-22.70729166,3.025922253,-29.28,-18.25,96,,,,,0,0
FLMM,9/28/11,-26.95250007,3.983337481,-34.33,-18.95,96,,,,,0,0
FLMM,9/29/11,-30.89520854,3.870908088,-37.42,-23.54,96,,,,,0,0
FLMM,9/30/11,-34.45270834,3.1154686,-38.84,-28.06,96,,,,,0,0
FLMM,10/1/11,-35.94916679,3.028869429,-39.94,-30.71,96,,,,,0,0
FLMM,10/2/11,-26.78781241,2.552860595,-32.33,-23.28,96,,,,,0,0
FLMM,10/3/11,-25.08374995,3.828307343,-32.9,-21.2,96,,,,,0,0
FLMM,10/4/11,-25.25302076,3.878942693,-33.26,-19.93,96,,,,,0,0
FLMM,10/5/11,-21.55812492,1.095657753,-23.88,-19.64,96,,,,,0,0
FLMM,10/6/11,-23.97281257,1.256053656,-26.19,-21.81,96,,,,,0,0
FLMM,10/7/11,-20.26062498,1.074172196,-21.84,-18.59,96,,,,,0,0
FLMM,10/8/11,-20.89843748,1.207802939,-23.16,-18.79,96,,,,,0,0
FLMM,10/9/11,-21.61322924,1.956825286,-27.75,-18.6,96,,,,,0,0
FLMM,10/10/11,-18.41520842,2.541197848,-23.21,-13.76,96,,,,,0,0
FLMM,10/11/11,-26.36833336,1.648998302,-30.52,-23.46,96,,,,,0,0
FLMM,10/12/11,-31.07552079,0.98763713,-32.89,-27.92,96,,,,,0,0
FLMM,10/13/11,-29.41385422,2.427450722,-33.56,-24.52,96,,,,,0,0
FLMM,10/14/11,-25.64520834,2.556995755,-29.67,-20.39,96,,,,,0,0
FLMM,10/15/11,-31.85500012,3.710609358,-38.21,-26.61,96,,,,,0,0
FLMM,10/16/11,-27.36416666,2.538732611,-32.01,-24.46,96,,,,,0,0
FLMM,10/17/11,-25.08187487,1.126876813,-28.54,-23.3,96,,,,,0,0
FLMM,10/18/11,-25.78395828,0.740559397,-27.57,-23.79,96,,,,,0,0
FLMM,10/19/11,-26.70020835,1.920901018,-31.22,-23.5,96,,,,,0,0
FLMM,10/20/11,-31.11645826,0.980954381,-32.7,-29.39,96,,,,,0,0
FLMM,10/21/11,-28.97833337,1.002138311,-31.47,-27.7,96,,,,,0,0
FLMM,10/22/11,-29.94572916,1.325155592,-31.79,-27.83,96,,,,,0,0
FLMM,10/23/11,-28.11406249,1.16401813,-30.09,-26.04,96,,,,,0,0
FLMM,10/24/11,-26.82427092,1.372493549,-29,-24.98,96,,,,,0,0
FLMM,10/25/11,-25.82614595,1.019499707,-28.53,-23.91,96,,,,,0,0
FLMM,10/26/11,-25.07791668,2.022743736,-29.11,-22.75,96,,,,,0,0
FLMM,10/27/11,-20.45624999,1.818897426,-23.58,-17.91,96,,,,,0,0
FLMM,10/28/11,-21.44250005,1.368145886,-24.61,-18.82,96,,,,,0,0
FLMM,10/29/11,-25.31739581,0.64397649,-27.05,-24.12,96,,,,,0,0
FLMM,10/30/11,-26.36572917,1.339897586,-28.69,-24.38,96,,,,,0,0
FLMM,10/31/11,-27.23541667,1.111573402,-28.92,-25.56,96,,,,,0,0
FLMM,11/1/11,-25.03708329,2.118116328,-28.5,-22.27,96,,,,,0,0
FLMM,11/2/11,-17.86791668,2.091966605,-22.27,-15.32,96,,,,,0,0
FLMM,11/3/11,-18.19062497,0.500475126,-19.78,-16.84,96,,,,,0,0
FLMM,11/4/11,-19.44104173,1.115373531,-20.95,-16.38,96,,,,,0,0
FLMM,11/5/11,-19.48645832,1.121285944,-21.45,-18.05,96,,,,,0,0
FLMM,11/6/11,-18.62312506,0.290035542,-19.22,-17.92,96,,,,,0,0
FLMM,11/7/11,-17.7248958,0.970250181,-19.62,-16.47,96,,,,,0,0
FLMM,11/8/11,-16.40239579,1.159220846,-18.34,-14.66,96,,,,,0,0
FLMM,11/9/11,-16.71479165,1.140111717,-18.98,-14.83,96,,,,,0,0
FLMM,11/10/11,-15.90677087,0.965550277,-17.64,-14.34,96,,,,,0,0
FLMM,11/11/11,-18.0790625,0.999734707,-20.8,-16.8,96,,,,,0,0
FLMM,11/12/11,-19.14989585,0.954813367,-21.28,-17.57,96,,,,,0,0
FLMM,11/13/11,-16.70072918,1.405625646,-19.73,-14.74,96,,,,,0,0
FLMM,11/14/11,-14.44958332,1.302750202,-17,-12.82,96,,,,,0,0
FLMM,11/15/11,-12.24166666,1.322038845,-14.87,-10.23,96,,,,,0,0
FLMM,11/16/11,-10.73989584,0.846539099,-12.3,-9.02,96,,,,,0,0
FLMM,11/17/11,-14.69208335,1.035223773,-16.37,-12.16,96,,,,,0,0
FLMM,11/18/11,-16.57999999,1.784463384,-19.4,-13.71,96,,,,,0,0
FLMM,11/19/11,-22.08468753,1.49738643,-24.97,-18.96,96,,,,,0,0
FLMM,11/20/11,-20.81125009,1.637096412,-23.28,-18.42,96,,,,,0,0
FLMM,11/21/11,-17.26218744,1.506122397,-19.74,-15.33,96,,,,,0,0
FLMM,11/22/11,-16.41260415,0.443517565,-17.23,-15.34,96,,,,,0,0
FLMM,11/23/11,-16.1496875,1.026406553,-17.9,-14.45,96,,,,,0,0
FLMM,11/24/11,-16.41489579,0.760741992,-17.74,-14.92,96,,,,,0,0
FLMM,11/25/11,-18.42093746,0.335794703,-19.07,-17.66,96,,,,,0,0
FLMM,11/26/11,-15.18187506,2.170657635,-18.6,-11.66,96,,,,,0,0
FLMM,11/27/11,-16.63958325,0.792858776,-18.23,-15,96,,,,,0,0
FLMM,11/28/11,-15.32062504,1.014376435,-16.96,-13.94,96,,,,,0,0
FLMM,11/29/11,-13.92052081,0.997691427,-16.08,-12.53,96,,,,,0,0
FLMM,11/30/11,-13.43437499,0.558855614,-14.57,-12.23,96,,,,,0,0
FLMM,12/1/11,-13.56791663,0.963401752,-15.45,-11.55,96,,,,,0,0
FLMM,12/2/11,-13.47885414,0.856845955,-15.29,-11.44,96,,,,,0,0
FLMM,12/3/11,-13.65250005,1.618511396,-17.26,-11.6,96,,,,,0,0
FLMM,12/4/11,-16.03333326,1.16025919,-18.05,-14.33,96,,,,,0,0
FLMM,12/5/11,-15.99291666,0.622634303,-17.2,-14.39,96,,,,,0,0
FLMM,12/6/11,-13.86052084,1.59057182,-16.91,-11.69,96,,,,,0,0
FLMM,12/7/11,-13.56854167,1.445301644,-15.72,-11.12,96,,,,,0,0
FLMM,12/8/11,-15.08052088,1.172738067,-16.88,-12.86,96,,,,,0,0
FLMM,12/9/11,-14.28739588,1.108357046,-16.11,-12.67,96,,,,,0,0
FLMM,12/10/11,-12.04395837,1.129256441,-13.81,-9.63,96,,,,,0,0
FLMM,12/11/11,-16.15677079,0.731741259,-17.23,-13.93,96,,,,,0,0
FLMM,12/12/11,-16.62458337,1.060690875,-18.24,-14.85,96,,,,,0,0
FLMM,12/13/11,-16.55885427,0.606341728,-17.47,-15.25,96,,,,,0,0
FLMM,12/14/11,-17.28416666,0.891310838,-18.5,-15.22,96,,,,,0,0
FLMM,12/15/11,-17.22552091,0.84523039,-18.79,-16,96,,,,,0,0
FLMM,12/16/11,-17.58374999,0.710613159,-18.5,-15.9,96,,,,,0,0
FLMM,12/17/11,-18.60781252,0.846907932,-20.21,-17.24,96,,,,,0,0
FLMM,12/18/11,-18.06229162,0.833126693,-19.67,-16.71,96,,,,,0,0
FLMM,12/19/11,-17.30187502,0.842566563,-19.15,-16.08,96,,,,,0,0
FLMM,12/20/11,-16.69229165,1.991481646,-19.34,-13.09,96,,,,,0,0
FLMM,12/21/11,-14.4978125,0.720495728,-16.16,-13.27,96,,,,,0,0
FLMM,12/22/11,-14.96854168,1.455821705,-17.44,-12.54,96,,,,,0,0
FLMM,12/23/11,-14.13875002,2.216988114,-18.01,-11.09,96,,,,,0,0
FLMM,12/24/11,-12.47343753,1.356718048,-14.83,-10.77,96,,,,,0,0
FLMM,12/25/11,-9.606770843,1.114024013,-11.68,-8.24,96,,,,,0,0
FLMM,12/26/11,-10.16187499,1.074999481,-11.56,-8.19,96,,,,,0,0
FLMM,12/27/11,-8.995416676,0.666037671,-10.76,-7.62,96,,,,,0,0
FLMM,12/28/11,-8.754999995,1.707128695,-13.66,-6.05,96,,,,,0,0
FLMM,12/29/11,-9.387604182,1.545141587,-12.44,-5.9,96,,,,,0,0
FLMM,12/30/11,-11.72583334,0.698997298,-13.36,-10.41,96,,,,,0,0
FLMM,12/31/11,-12.74572918,1.577245278,-15.22,-10.23,96,,,,,0,0
FLMM,1/1/12,-10.93156253,0.797888435,-12.42,-9.55,96,,,,,0,0
FLMM,1/2/12,-13.7809375,0.483937946,-14.9,-12.7,96,,,,,0,0
FLMM,1/3/12,-14.50479167,0.514891862,-15.61,-13.39,96,,,,,0,0
FLMM,1/4/12,-15.34062502,0.720923134,-16.73,-13.96,96,,,,,0,0
FLMM,1/5/12,-15.99135417,0.810934026,-17.08,-14.58,96,,,,,0,0
FLMM,1/6/12,-15.46614581,0.927774207,-16.86,-13.4,96,,,,,0,0
FLMM,1/7/12,-14.36958335,1.527921152,-16.91,-12.24,96,,,,,0,0
FLMM,1/8/12,-13.39729168,0.795292071,-14.58,-12.12,96,,,,,0,0
FLMM,1/9/12,-13.33239583,1.065730065,-14.5,-11.23,96,,,,,0,0
FLMM,1/10/12,-13.65104169,0.83181033,-15.29,-11.98,96,,,,,0,0
FLMM,1/11/12,-10.29052084,2.740179495,-16.99,-6.99,96,,,,,0,0
FLMM,1/12/12,-9.347187499,1.306386498,-12.67,-7.65,96,,,,,0,0
FLMM,1/13/12,-12.74812501,1.803991078,-16.34,-9.67,96,,,,,0,0
FLMM,1/14/12,-10.50927081,0.681971207,-11.74,-8.52,96,,,,,0,0
FLMM,1/15/12,-10.43968755,0.945929192,-12.55,-8.71,96,,,,,0,0
FLMM,1/16/12,-13.4136458,0.613466636,-15.29,-12.41,96,,,,,0,0
FLMM,1/17/12,-14.44072919,1.581220269,-16.96,-12.16,96,,,,,0,0